Location: Congrier
(47.8099°N, 1.1170°W)
Time: 18:26:32
(UTC+00:00)

Cosmos 2279 Rocket - Pass Details

Date: 28 January 2023
Orbit: 964 x 978 km, 82.9° (Epoch: 25 March)

Event Time Altitude Azimuth Distance (km) Brightness Sun altitude
Rises 17:22:22 0° 173° (S) 3,638 7.2 -4.5°
Reaches altitude 10° 17:24:53 10° 170° (S) 2,696 6.5 -4.9°
Maximum altitude 17:30:55 59° 93° (E) 1,111 4.1 -5.8°
Drops below altitude 10° 17:37:00 10° 16° (NNE) 2,720 6.0 -6.8°
Sets 17:39:33 0° 12° (NNE) 3,673 6.7 -7.2°
